sat.trackr.live / text

‹ back to catalog

VSP RF B1

NORAD 59137 · 2024-043AR

PAYLOAD ACTIVE UNKNOWN

§ Identity

Operator
Country
BEL
Launch date
2024-03-04
Launch site
AFWTR
Launch vehicle
Mass (kg)
RCS (m²)

External: N2YO · Heavens-Above · Gunter

§ Orbital elements

Epoch: 2026-05-25T03:38:04.518816Z

Period
94.28 min
Inclination
97.5584°
Eccentricity
0.0009808
Mean motion
15.27395419 rev/d
Perigee alt
476.9 km
Apogee alt
490.3 km
Semi-major
6,861.7 km
B*
1.3575e-4
RAAN
281.8158°
Arg perigee
324.5618°
Mean anomaly
35.4967°
Rev number
12,350

§ Raw data

VSP RF B11 59137U 24043AR  26145.15144119  .00003567  00000+0  13575-3 0  99962 59137  97.5584 281.8158 0009808 324.5618  35.4967 15.27395419123503

JSON: /api/v1/satellites/59137 · /tle

For live sub-satellite position, see the globe view (requires WebGL).

§ Visibility from observer

Set your observer location to see the next 7 days of passes ≥ 10°. The values pass through the URL so the page stays shareable.

No JS? Fill the form by hand. The geolocation button needs JavaScript.